Vertical_Velocity
-1 -1 -6 6 4 1 1 -0 -1 0 4 6 4 9 4 -1 1 5 7 5 2 1 1 -0 1 -5 1 3 5 -0 2 4
-1 -1 1 -1 -8 6 -1 -3 0 2 5 1 2 -2 16 -1 1 -4 2 2 3 -2 1 -1 2 -3 1 1 -1 -3 14 -10
-1 0 2 -0 3 -6 1 6 -1 -1 -4 1 7 1 6 18 -2 -5 0 6 2 4 6 -1 3 -1 3 1 3 22 23 11
0 2 1 8 8 5 4 -1 -0 1 -2 -1 7 -2 0 3 -8 4 -3 -4 3 7 3 0 4 -5 4 -1 12 -10 -6 -1
2 -1 3 6 1 4 -1 2 -3 3 -2 1 -1 -0 -3 -9 -2 -4 -0 -1 -1 1 2 -2 5 -1 11 7 3 -7 -2 -0
3 0 7 9 -0 1 1 0 1 -3 7 -1 0 2 -0 -4 -0 -3 -4 4 -4 -2 -5 -4 -3 14 -4 -2 15 1 -2 -2
-5 2 -2 5 -4 -6 -0 -3 -1 1 1 1 2 -0 -5 -0 2 -3 -1 -6 1 -5 -4 -6 -11 -1 4 8 6 12 2 -1
3 3 3 -3 -2 1 -4 5 2 2 3 1 -2 3 -3 -1 -1 1 2 2 -0 5 -2 -9 -2 1 2 12 -5 -0 1 1
-2 -0 2 1 1 2 -0 0 1 2 -6 -1 -1 -3 1 1 0 3 2 4 -3 12 -5 9 -2 -5 -3 5 -8 8 -5 -5
3 -3 1 2 4 -1 2 1 2 1 5 5 -2 0 -3 1 1 -7 0 0 5 1 2 3 -2 -3 -1 16 -1 5 -0 -2
3 -2 1 3 2 4 3 -1 4 0 2 1 -0 -0 0 2 2 2 -0 2 5 4 1 4 13 7 -12 -11 -4 7 -4 2
6 -1 -1 6 4 7 5 3 1 1 -0 -4 -1 0 2 4 -0 -1 3 -7 -1 3 4 5 3 -3 7 -2 3 2 2 -0
4 6 0 0 3 -1 2 -9 -7 -1 -0 -0 3 -2 -5 -2 2 -1 1 0 -1 -6 -3 6 9 -13 -17 4 3 2 7 -4
0 -4 -2 -6 -4 4 5 3 2 3 2 1 3 3 3 -3 4 1 -0 -2 1 3 -1 -6 3 -4 -9 8 -1 5 4 -1
-4 5 0 -1 4 5 9 7 13 4 -3 -1 -5 -3 3 1 2 -2 3 -0 -2 -1 -1 -3 3 -0 -5 8 -2 6 -5 -2
4 -0 0 2 5 1 2 -6 -6 0 -4 3 -2 3 -1 5 5 -1 6 3 -1 -0 -1 1 -7 2 -0 10 -6 1 2 2
-6 4 2 2 -2 4 8 1 10 0 1 -0 -1 2 -1 3 -1 -1 1 4 3 -3 -8 -6 -2 -1 -2 2 -3 2 0 -7
18 10 2 3 3 3 5 5 1 -2 3 0 -1 -1 -3 -0 -2 2 -2 3 3 5 -1 -1 -5 2 3 0 -3 -6 -2 -1
-5 -2 18 -1 0 0 3 7 8 10 -0 -1 -2 -0 -2 -3 -2 -3 -3 0 -5 7 -0 1 -8 1 -2 -7 -2 -3 6 5
-2 -5 -6 2 -1 0 -1 6 10 6 8 2 -4 -3 2 3 4 -1 4 1 -0 -1 9 -2 -2 0 -3 1 -0 2 -0 1
Height
1475 1478 1482 1487 1489 1493 1496 1500 1504 1508 1511 1512 1516 1516 1515 1521 1525 1529 1530 1531 1532 1532 1534 1535 1536 1537 1539 1541 1540 1541 1543 1545
1475 1477 1480 1481 1489 1492 1494 1497 1501 1505 1508 1511 1514 1517 1515 1519 1520 1527 1530 1532 1532 1533 1533 1535 1536 1536 1538 1541 1543 1544 1544 1544
1473 1476 1481 1481 1483 1485 1492 1495 1498 1502 1506 1510 1513 1515 1515 1517 1520 1524 1528 1530 1532 1533 1533 1534 1537 1537 1539 1542 1542 1547 1545 1545
1468 1473 1477 1480 1479 1482 1484 1490 1494 1498 1501 1506 1510 1511 1513 1516 1516 1522 1525 1529 1531 1532 1533 1536 1537 1538 1539 1541 1546 1540 1541 1539
1466 1469 1472 1475 1476 1479 1480 1484 1489 1493 1497 1501 1505 1509 1510 1513 1517 1521 1522 1527 1529 1531 1532 1537 1539 1539 1540 1543 1544 1539 1540 1540
1464 1466 1469 1471 1474 1478 1480 1483 1484 1488 1493 1497 1501 1505 1506 1510 1514 1517 1520 1524 1525 1528 1531 1534 1537 1540 1539 1538 1546 1541 1540 1540
1457 1460 1463 1465 1465 1471 1477 1479 1483 1485 1489 1495 1498 1501 1504 1507 1511 1513 1516 1518 1522 1522 1526 1532 1534 1540 1538 1540 1546 1543 1539 1540
1451 1456 1457 1460 1464 1467 1472 1476 1478 1481 1485 1489 1495 1499 1500 1502 1506 1510 1513 1515 1517 1518 1521 1526 1532 1536 1536 1539 1542 1542 1542 1540
1442 1448 1452 1454 1458 1463 1466 1471 1474 1478 1480 1484 1488 1493 1495 1498 1502 1506 1508 1511 1514 1518 1519 1522 1525 1530 1534 1535 1535 1539 1538 1542
1436 1441 1446 1450 1452 1456 1460 1465 1469 1472 1473 1477 1482 1486 1490 1494 1498 1502 1505 1509 1513 1515 1517 1520 1521 1526 1530 1533 1536 1536 1535 1539
1430 1433 1438 1445 1446 1452 1456 1459 1464 1466 1469 1472 1477 1480 1485 1489 1493 1497 1502 1507 1511 1514 1518 1518 1518 1522 1527 1532 1535 1537 1535 1538
1426 1427 1433 1437 1442 1445 1451 1454 1459 1460 1464 1467 1472 1475 1480 1484 1488 1491 1496 1501 1508 1511 1516 1517 1519 1523 1523 1533 1534 1534 1535 1535
1423 1422 1426 1430 1433 1436 1443 1447 1453 1456 1458 1462 1467 1469 1474 1479 1483 1485 1492 1497 1501 1506 1512 1516 1514 1517 1522 1531 1531 1533 1536 1533
1417 1419 1421 1423 1427 1432 1437 1441 1446 1450 1454 1456 1461 1464 1469 1473 1477 1479 1484 1491 1495 1499 1502 1510 1514 1513 1520 1523 1530 1535 1533 1536
1415 1416 1416 1418 1421 1425 1430 1435 1442 1443 1445 1449 1453 1459 1463 1468 1471 1474 1479 1483 1488 1492 1498 1502 1507 1508 1517 1518 1523 1526 1532 1536
1414 1412 1412 1413 1415 1416 1420 1424 1426 1431 1436 1441 1446 1450 1456 1462 1466 1470 1474 1477 1480 1485 1491 1497 1501 1506 1511 1513 1514 1517 1526 1532
1410 1409 1409 1408 1408 1411 1412 1416 1421 1425 1430 1435 1439 1443 1448 1454 1460 1464 1470 1471 1475 1480 1485 1493 1498 1504 1507 1507 1512 1516 1520 1522
1406 1407 1404 1403 1402 1404 1406 1408 1413 1416 1421 1423 1427 1431 1438 1444 1451 1456 1462 1469 1471 1476 1481 1487 1496 1500 1503 1505 1509 1513 1518 1519
1401 1403 1401 1398 1397 1398 1401 1404 1406 1407 1409 1414 1418 1420 1425 1432 1440 1447 1455 1461 1469 1472 1475 1483 1489 1496 1497 1501 1507 1511 1514 1517
1397 1396 1396 1394 1392 1393 1395 1398 1400 1402 1404 1405 1411 1417 1420 1425 1432 1440 1446 1453 1461 1467 1470 1475 1482 1489 1493 1499 1502 1508 1510 1513